FHV69 PAKT-PASI

Flight info

Callsign FHV69
Flight time 0h 39m
Altitude 16000
Route UDENE3 FLIPS
Aircraft A319/M-SDE3FGHIRWY/LB1

Departure

Time 2026-04-21 22:54
Airport Ketchikan International Airport (PAKT)

Arrival

Time 2026-04-21 23:33
Airport Sitka Rocky Gutierrez Airport (PASI)
Time Latitude Longitude Altitude Speed Heading
2026-04-21 22:40 55.35560 -131.70978 33 ft 0 kts 136°
2026-04-21 22:50 55.35555 -131.70969 33 ft 3 kts 137°
2026-04-21 22:50 55.35490 -131.70924 33 ft 15 kts 160°
2026-04-21 22:51 55.35382 -131.70764 42 ft 22 kts 137°
2026-04-21 22:51 55.35265 -131.70575 60 ft 22 kts 145°
2026-04-21 22:51 55.35157 -131.70401 78 ft 20 kts 136°
2026-04-21 22:51 55.35049 -131.70224 96 ft 23 kts 136°
2026-04-21 22:52 55.34930 -131.70047 100 ft 17 kts 167°
2026-04-21 22:52 55.34824 -131.70102 100 ft 15 kts 174°
2026-04-21 22:52 55.34744 -131.69975 98 ft 15 kts 125°
2026-04-21 22:52 55.34700 -131.69875 98 ft 3 kts 155°
2026-04-21 22:53 55.34689 -131.69900 98 ft 4 kts 283°
2026-04-21 22:53 55.34712 -131.69948 98 ft 6 kts 315°
2026-04-21 22:53 55.34833 -131.70151 100 ft 57 kts 315°
2026-04-21 22:53 55.35305 -131.70952 103 ft 126 kts 315°
2026-04-21 22:54 55.36015 -131.72168 447 ft 149 kts 315°
2026-04-21 22:54 55.36709 -131.73469 1189 ft 148 kts 313°
2026-04-21 22:54 55.37388 -131.74811 1896 ft 151 kts 313°
2026-04-21 22:54 55.38112 -131.76202 2444 ft 164 kts 314°
2026-04-21 22:55 55.38933 -131.77743 2971 ft 181 kts 314°
2026-04-21 22:55 55.39828 -131.79417 3513 ft 198 kts 314°
2026-04-21 22:55 55.40819 -131.81271 4042 ft 218 kts 314°
2026-04-21 22:55 55.41891 -131.83275 4652 ft 236 kts 314°
2026-04-21 22:56 55.43060 -131.85461 5367 ft 251 kts 314°
2026-04-21 22:56 55.44252 -131.87695 6360 ft 255 kts 314°
2026-04-21 22:56 55.45439 -131.89922 7394 ft 255 kts 314°
2026-04-21 22:56 55.46655 -131.92200 8432 ft 256 kts 313°
2026-04-21 22:57 55.47861 -131.94464 9434 ft 256 kts 313°
2026-04-21 22:57 55.49061 -131.96721 10346 ft 257 kts 313°
2026-04-21 22:57 55.50316 -131.99085 10910 ft 271 kts 313°
2026-04-21 22:57 55.51636 -132.01575 11354 ft 288 kts 313°
2026-04-21 22:58 55.53007 -132.04161 12074 ft 293 kts 313°
2026-04-21 22:58 55.54404 -132.06799 12969 ft 294 kts 313°
2026-04-21 22:58 55.55849 -132.09294 13793 ft 295 kts 321°
2026-04-21 22:58 55.57584 -132.11305 14608 ft 298 kts 326°
2026-04-21 22:59 55.59355 -132.13190 15329 ft 301 kts 326°
2026-04-21 22:59 55.61147 -132.15140 15783 ft 303 kts 324°
2026-04-21 22:59 55.62806 -132.17453 15952 ft 303 kts 315°
2026-04-21 22:59 55.64192 -132.20181 15956 ft 301 kts 307°
2026-04-21 23:00 55.65388 -132.23251 15961 ft 302 kts 304°
2026-04-21 23:00 55.66545 -132.26372 15965 ft 302 kts 304°
2026-04-21 23:00 55.67689 -132.29480 15967 ft 301 kts 304°
2026-04-21 23:00 55.68825 -132.32579 15968 ft 301 kts 304°
2026-04-21 23:01 55.69977 -132.35722 15963 ft 301 kts 304°
2026-04-21 23:01 55.71114 -132.38832 15967 ft 301 kts 304°
2026-04-21 23:01 55.72243 -132.41922 15967 ft 301 kts 304°
2026-04-21 23:01 55.73391 -132.45071 15969 ft 301 kts 304°
2026-04-21 23:02 55.74519 -132.48167 15964 ft 301 kts 304°
2026-04-21 23:02 55.75664 -132.51320 15965 ft 301 kts 304°
2026-04-21 23:02 55.76797 -132.54440 15967 ft 301 kts 304°
2026-04-21 23:02 55.77922 -132.57539 15961 ft 301 kts 304°
2026-04-21 23:03 55.79062 -132.60686 15962 ft 300 kts 304°
2026-04-21 23:03 55.80186 -132.63798 15966 ft 301 kts 304°
2026-04-21 23:03 55.81319 -132.66937 15962 ft 301 kts 303°
2026-04-21 23:03 55.82426 -132.70021 15965 ft 300 kts 303°
2026-04-21 23:04 55.83564 -132.73187 15970 ft 301 kts 303°
2026-04-21 23:04 55.84702 -132.76360 15967 ft 301 kts 303°
2026-04-21 23:04 55.85829 -132.79498 15967 ft 301 kts 303°
2026-04-21 23:04 55.86953 -132.82634 15964 ft 301 kts 303°
2026-04-21 23:05 55.88086 -132.85794 15963 ft 301 kts 303°
2026-04-21 23:05 55.89204 -132.88921 15966 ft 301 kts 303°
2026-04-21 23:05 55.90333 -132.92079 15964 ft 300 kts 303°
2026-04-21 23:05 55.91457 -132.95226 15967 ft 300 kts 303°
2026-04-21 23:06 55.92565 -132.98337 15959 ft 300 kts 303°
2026-04-21 23:06 55.93689 -133.01491 15959 ft 300 kts 303°
2026-04-21 23:06 55.94802 -133.04619 15964 ft 300 kts 303°
2026-04-21 23:06 55.95915 -133.07750 15969 ft 299 kts 303°
2026-04-21 23:07 55.97039 -133.10919 15962 ft 300 kts 303°
2026-04-21 23:07 55.98148 -133.14047 15972 ft 300 kts 303°
2026-04-21 23:07 55.99271 -133.17224 15972 ft 299 kts 303°
2026-04-21 23:07 56.00386 -133.20375 15965 ft 300 kts 303°
2026-04-21 23:08 56.01485 -133.23491 15965 ft 300 kts 303°
2026-04-21 23:08 56.02605 -133.26668 15965 ft 300 kts 303°
2026-04-21 23:08 56.03719 -133.29829 15969 ft 300 kts 303°
2026-04-21 23:08 56.04833 -133.33000 15965 ft 300 kts 303°
2026-04-21 23:09 56.05936 -133.36142 15966 ft 300 kts 303°
2026-04-21 23:09 56.07048 -133.39313 15966 ft 300 kts 303°
2026-04-21 23:09 56.08154 -133.42470 15968 ft 300 kts 303°
2026-04-21 23:09 56.09256 -133.45621 15952 ft 300 kts 303°
2026-04-21 23:10 56.10367 -133.48802 15960 ft 300 kts 304°
2026-04-21 23:10 56.11482 -133.51961 15955 ft 299 kts 304°
2026-04-21 23:10 56.12528 -133.54933 15948 ft 299 kts 304°
2026-04-21 23:10 56.13633 -133.58084 15946 ft 298 kts 303°
2026-04-21 23:11 56.14738 -133.61244 15950 ft 299 kts 303°
2026-04-21 23:11 56.15839 -133.64404 15950 ft 300 kts 303°
2026-04-21 23:11 56.16943 -133.67595 15957 ft 300 kts 302°
2026-04-21 23:11 56.17916 -133.70413 15964 ft 300 kts 303°
2026-04-21 23:12 56.19020 -133.73616 15970 ft 299 kts 303°
2026-04-21 23:12 56.20113 -133.76787 15977 ft 298 kts 303°
2026-04-21 23:12 56.21156 -133.79813 15973 ft 298 kts 303°
2026-04-21 23:12 56.22236 -133.82951 15969 ft 299 kts 303°
2026-04-21 23:13 56.23337 -133.86154 15964 ft 299 kts 303°
2026-04-21 23:13 56.24431 -133.89336 15967 ft 305 kts 302°
2026-04-21 23:13 56.25597 -133.92731 15965 ft 327 kts 303°
2026-04-21 23:13 56.26793 -133.96225 15960 ft 334 kts 303°
2026-04-21 23:14 56.28014 -133.99797 15955 ft 335 kts 302°
2026-04-21 23:14 56.29228 -134.03355 15954 ft 337 kts 302°
2026-04-21 23:14 56.30502 -134.07088 15957 ft 357 kts 303°
2026-04-21 23:14 56.31815 -134.10941 15956 ft 367 kts 302°
2026-04-21 23:15 56.33167 -134.14914 15952 ft 370 kts 302°
2026-04-21 23:15 56.34497 -134.18834 15957 ft 369 kts 302°
2026-04-21 23:15 56.35839 -134.22792 15961 ft 371 kts 302°
2026-04-21 23:15 56.37187 -134.26779 15955 ft 371 kts 302°
2026-04-21 23:16 56.38516 -134.30716 15965 ft 370 kts 302°
2026-04-21 23:16 56.39859 -134.34703 15963 ft 369 kts 302°
2026-04-21 23:16 56.41182 -134.38632 15636 ft 363 kts 302°
2026-04-21 23:16 56.42486 -134.42513 14853 ft 362 kts 302°
2026-04-21 23:17 56.43785 -134.46385 14108 ft 361 kts 302°
2026-04-21 23:17 56.45063 -134.50201 13440 ft 357 kts 302°
2026-04-21 23:17 56.46347 -134.54042 12766 ft 354 kts 302°
2026-04-21 23:17 56.47602 -134.57805 12109 ft 352 kts 302°
2026-04-21 23:18 56.48862 -134.61585 11394 ft 350 kts 302°
2026-04-21 23:18 56.50120 -134.65364 10730 ft 347 kts 301°
2026-04-21 23:18 56.51355 -134.69098 10073 ft 345 kts 301°
2026-04-21 23:18 56.52591 -134.72836 9390 ft 343 kts 301°
2026-04-21 23:19 56.53798 -134.76486 8722 ft 342 kts 301°
2026-04-21 23:19 56.55019 -134.80186 8033 ft 341 kts 301°
2026-04-21 23:19 56.56234 -134.83864 7340 ft 341 kts 301°
2026-04-21 23:19 56.57486 -134.87518 6668 ft 340 kts 304°
2026-04-21 23:20 56.58864 -134.90955 6079 ft 337 kts 307°
2026-04-21 23:20 56.60259 -134.94237 5693 ft 315 kts 308°
2026-04-21 23:20 56.61562 -134.97284 5150 ft 295 kts 308°
2026-04-21 23:20 56.62772 -135.00116 4676 ft 277 kts 308°
2026-04-21 23:21 56.63916 -135.02797 4282 ft 259 kts 308°
2026-04-21 23:21 56.64977 -135.05286 3917 ft 245 kts 307°
2026-04-21 23:21 56.66016 -135.07732 3362 ft 243 kts 308°
2026-04-21 23:21 56.67069 -135.10213 3196 ft 252 kts 308°
2026-04-21 23:22 56.68147 -135.12746 3557 ft 250 kts 308°
2026-04-21 23:22 56.69199 -135.15225 3432 ft 245 kts 308°
2026-04-21 23:22 56.70238 -135.17682 3304 ft 244 kts 308°
2026-04-21 23:22 56.71267 -135.20116 3176 ft 244 kts 308°
2026-04-21 23:23 56.72301 -135.22566 3051 ft 244 kts 308°
2026-04-21 23:23 56.73329 -135.25001 2991 ft 243 kts 308°
2026-04-21 23:23 56.74368 -135.27466 2979 ft 243 kts 308°
2026-04-21 23:23 56.75388 -135.29887 2974 ft 244 kts 308°
2026-04-21 23:24 56.76425 -135.32349 2972 ft 245 kts 308°
2026-04-21 23:24 56.77468 -135.34830 2971 ft 240 kts 308°
2026-04-21 23:24 56.78447 -135.37164 2968 ft 227 kts 308°
2026-04-21 23:24 56.79374 -135.39377 2967 ft 215 kts 308°
2026-04-21 23:25 56.80283 -135.41548 2975 ft 213 kts 308°
2026-04-21 23:25 56.81172 -135.43674 2982 ft 211 kts 308°
2026-04-21 23:25 56.82068 -135.45815 2979 ft 211 kts 308°
2026-04-21 23:25 56.82955 -135.47939 2972 ft 204 kts 308°
2026-04-21 23:26 56.83788 -135.49930 2961 ft 194 kts 308°
2026-04-21 23:26 56.84587 -135.51799 3032 ft 177 kts 313°
2026-04-21 23:26 56.85578 -135.53062 2993 ft 174 kts 336°
2026-04-21 23:26 56.86763 -135.53496 2982 ft 176 kts 358°
2026-04-21 23:27 56.87971 -135.53052 2954 ft 180 kts 20°
2026-04-21 23:27 56.89098 -135.51991 2930 ft 181 kts 26°
2026-04-21 23:27 56.90163 -135.50876 2875 ft 171 kts 27°
2026-04-21 23:27 56.91166 -135.49821 2828 ft 157 kts 26°
2026-04-21 23:28 56.92079 -135.48865 2794 ft 147 kts 26°
2026-04-21 23:28 56.92967 -135.47949 2762 ft 147 kts 26°
2026-04-21 23:28 56.93865 -135.47031 2703 ft 147 kts 26°
2026-04-21 23:28 56.94742 -135.46133 2608 ft 142 kts 26°
2026-04-21 23:29 56.95573 -135.45277 2483 ft 132 kts 25°
2026-04-21 23:29 56.96404 -135.44536 2271 ft 131 kts 20°
2026-04-21 23:29 56.97232 -135.43866 2063 ft 131 kts 20°
2026-04-21 23:29 56.98072 -135.43193 1850 ft 131 kts 20°
2026-04-21 23:30 56.98766 -135.42122 1635 ft 135 kts 57°
2026-04-21 23:30 56.99178 -135.40575 1446 ft 135 kts 63°
2026-04-21 23:30 56.99579 -135.39031 1457 ft 134 kts 63°
2026-04-21 23:30 56.99955 -135.37457 1425 ft 135 kts 69°
2026-04-21 23:31 57.00245 -135.35811 1340 ft 134 kts 72°
2026-04-21 23:31 57.00503 -135.34187 1129 ft 133 kts 71°
2026-04-21 23:31 57.01104 -135.33058 892 ft 126 kts
2026-04-21 23:31 57.01972 -135.33191 569 ft 129 kts
2026-04-21 23:32 57.02863 -135.33156 382 ft 128 kts 343°
2026-04-21 23:32 57.03571 -135.34038 123 ft 125 kts 310°
2026-04-21 23:32 57.04189 -135.35216 13 ft 127 kts 316°
2026-04-21 23:32 57.04716 -135.36174 11 ft 70 kts 315°
2026-04-21 23:33 57.04985 -135.36661 13 ft 51 kts 315°
2026-04-21 23:33 57.05223 -135.37089 13 ft 33 kts 315°
2026-04-21 23:33 57.05358 -135.37225 13 ft 16 kts 13°
2026-04-21 23:33 57.05382 -135.37094 13 ft 7 kts 141°
2026-04-21 23:34 57.05339 -135.37018 13 ft 9 kts 135°
2026-04-21 23:34 57.05286 -135.36920 14 ft 11 kts 136°
2026-04-21 23:34 57.05228 -135.36807 14 ft 12 kts 111°
2026-04-21 23:34 57.05253 -135.36708 14 ft 8 kts 46°
2026-04-21 23:35 57.05271 -135.36673 14 ft 0 kts 46°
2026-04-21 23:55 57.05264 -135.36687 14 ft 2 kts 45°
2026-04-21 23:55 57.05253 -135.36706 14 ft 2 kts 46°
2026-04-21 23:55 57.05243 -135.36726 14 ft 2 kts 46°
2026-04-21 23:56 57.05233 -135.36746 14 ft 2 kts 46°
2026-04-21 23:56 57.05223 -135.36768 14 ft 2 kts 73°
2026-04-21 23:56 57.05222 -135.36795 14 ft 2 kts 106°
2026-04-21 23:56 57.05227 -135.36815 14 ft 0 kts 133°
2026-04-21 23:57 57.05232 -135.36824 14 ft 1 kts 137°
2026-04-21 23:57 57.05233 -135.36824 14 ft 0 kts 137°